EST,Max TemperatureF,Mean TemperatureF,Min TemperatureF,Max Dew PointF,MeanDew PointF,Min DewpointF,Max Humidity, Mean Humidity, Min Humidity, Max Sea Level PressureIn, Mean Sea Level PressureIn, Min Sea Level PressureIn, Max VisibilityMiles, Mean VisibilityMiles, Min VisibilityMiles, Max Wind SpeedMPH, Mean Wind SpeedMPH, Max Gust SpeedMPH,PrecipitationIn, CloudCover, Events, WindDirDegrees
2014-2-1,42,34,27,28,22,18,76,58,40,30.33,30.22,30.03,10,10,10,10,5,,0.00,2,,196
2014-2-2,52,42,33,39,33,28,96,80,49,30.03,29.91,29.85,10,8,2,9,5,,0.02,6,Rain,242
2014-2-3,37,30,21,31,26,20,93,83,59,30.28,30.18,30.06,10,5,0,10,7,,0.09,7,Fog-Snow,358
2014-2-4,34,24,14,23,17,10,96,74,50,30.43,30.36,30.27,10,9,2,7,4,,0.00,1,,297
2014-2-5,33,28,21,30,25,18,96,87,78,30.27,29.87,29.63,10,3,0,18,5,28,0.88,7,Fog-Snow,34
2014-2-6,26,19,12,18,10,6,85,69,46,30.26,30.18,29.96,10,9,0,15,8,,0.00,5,Snow,311
2014-2-7,28,19,10,9,7,3,77,55,40,30.24,30.18,30.13,10,10,10,15,7,20,0.00,1,,260
2014-2-8,28,20,12,6,2,-2,62,43,31,30.28,30.19,30.11,10,10,10,13,6,,0.00,3,,259
2014-2-9,28,24,19,23,17,5,92,74,43,30.15,30.04,29.94,10,6,1,10,6,,0.02,8,Snow,4
2014-2-10,27,20,12,23,13,2,92,69,41,30.19,30.00,29.89,10,8,1,18,8,25,0.01,3,Snow,281
2014-2-11,24,14,3,4,1,-3,84,57,35,30.41,30.28,30.21,10,10,10,18,6,24,0.00,0,,303
2014-2-12,26,14,1,11,-1,-8,80,53,22,30.56,30.48,30.42,10,10,9,10,6,,0.00,1,,284
2014-2-13,34,24,14,32,24,9,93,86,71,30.40,29.90,29.01,10,4,0,28,7,41,1.10,8,Fog-Rain-Snow,27
2014-2-14,36,32,28,31,25,19,92,76,54,29.72,29.08,28.81,10,7,0,29,17,47,0.32,6,Fog-Rain-Snow,287
2014-2-15,35,30,24,29,25,19,93,81,59,29.84,29.65,29.44,10,4,1,21,7,30,0.15,6,Snow,360
2014-2-16,30,26,21,26,13,3,89,58,36,29.94,29.66,29.43,10,8,1,28,17,40,0.00,3,Snow,298
2014-2-17,27,18,6,-1,-5,-6,63,38,25,30.36,30.20,29.98,10,10,10,23,16,31,0.00,0,,309
2014-2-18,34,18,3,32,21,-6,96,82,55,30.35,30.05,29.87,10,4,0,16,7,25,0.38,7,Fog-Snow,29
2014-2-19,34,26,18,32,27,15,96,87,73,30.07,29.85,29.69,10,6,1,13,6,,0.21,5,Rain-Snow,341
2014-2-20,46,38,30,32,27,20,92,70,35,30.22,30.10,29.82,10,9,4,16,8,24,0.21,4,Rain,250
2014-2-21,39,36,33,39,36,32,100,95,89,30.15,29.90,29.66,10,4,0,13,6,,0.34,7,Fog-Rain-Thunderstorm,105
2014-2-22,50,40,30,33,27,20,96,70,31,29.94,29.88,29.82,10,7,1,22,7,32,0.00,0,,223
2014-2-23,48,38,28,29,25,22,76,57,36,29.97,29.88,29.75,10,10,10,10,5,,0.00,6,,237
2014-2-24,39,31,23,29,13,5,76,47,37,29.92,29.78,29.71,10,10,10,21,9,30,0.00,4,Snow,293
2014-2-25,27,20,12,8,4,3,77,50,36,29.97,29.92,29.86,10,10,10,16,7,26,0.00,2,,276
2014-2-26,28,20,12,9,2,-7,65,47,29,29.92,29.84,29.74,10,10,10,20,7,26,0.00,2,,260
2014-2-27,26,16,6,20,6,-7,84,57,34,29.87,29.70,29.59,10,7,0,21,6,34,0.01,5,Fog-Snow,267
2014-2-28,23,15,6,-4,-10,-13,61,36,21,30.43,30.24,29.91,10,10,10,17,11,25,0.00,0,,298